CW6988 Weather Reports


time (UTC)temp
C
wind
direction
speed
KPH
gust
KPH
rain 1hr
cm
rain 24hr
cm
rain mn
cm
humidity
%
barometer
mb
20260505200122 27 33 19.3 29.0 0.00 0.00 0.00 33 1013.5
20260505195535 27 326 14.5 25.7 0.00 0.00 0.00 33 1013.5
20260505195027 27 5 16.1 20.9 0.00 0.00 0.00 33 1013.5
20260505194635 27 56 14.5 27.4 0.00 0.00 0.00 34 1013.4
20260505194034 27 15 12.9 27.4 0.00 0.00 0.00 36 1013.4
20260505193531 26 300 4.8 22.5 0.00 0.00 0.00 35 1013.4
20260505193132 26 340 14.5 22.5 0.00 0.00 0.00 36 1013.4
20260505192534 26 19 14.5 20.9 0.00 0.00 0.00 36 1013.4
20260505192018 26 319 11.3 20.9 0.00 0.00 0.00 37 1013.4
20260505191638 26 332 14.5 19.3 0.00 0.00 0.00 36 1013.4
20260505191026 26 332 3.2 19.3 0.00 0.00 0.00 37 1013.4
20260505190524 26 329 9.7 19.3 0.00 0.00 0.00 37 1013.4
20260505190154 26 330 4.8 20.9 0.00 0.00 0.00 37 1013.5
20260505185529 26 347 14.5 20.9 0.00 0.00 0.00 38 1013.5
20260505185023 25 288 6.4 19.3 0.00 0.00 0.00 38 1013.6
20260505184640 25 360 12.9 22.5 0.00 0.00 0.00 39 1013.7
20260505184025 25 5 6.4 19.3 0.00 0.00 0.00 39 1013.7
20260505183538 25 41 9.7 19.3 0.00 0.00 0.00 39 1013.7
20260505183135 25 342 8.0 19.3 0.00 0.00 0.00 39 1013.9
20260505182523 25 31 9.7 20.9 0.00 0.00 0.00 40 1013.8
20260505182038 25 350 11.3 20.9 0.00 0.00 0.00 40 1013.8
20260505181617 24 360 6.4 20.9 0.00 0.00 0.00 40 1013.8
20260505181035 24 352 9.7 20.9 0.00 0.00 0.00 41 1013.7
20260505180531 23 12 6.4 19.3 0.00 0.00 0.00 42 1013.7
20260505180148 23 24 12.9 19.3 0.00 0.00 0.00 42 1013.6
20260505175524 23 13 11.3 20.9 0.00 0.00 0.00 41 1013.6
20260505175039 23 352 11.3 22.5 0.00 0.00 0.00 43 1013.7
20260505174645 23 348 14.5 22.5 0.00 0.00 0.00 43 1013.7
20260505174027 23 344 14.5 22.5 0.00 0.00 0.00 43 1013.7
20260505173529 23 335 12.9 22.5 0.00 0.00 0.00 43 1013.7
20260505173109 22 25 12.9 22.5 0.00 0.00 0.00 44 1013.7
20260505172530 22 19 8.0 20.9 0.00 0.00 0.00 46 1013.7
20260505172040 22 40 9.7 20.9 0.00 0.00 0.00 45 1013.8
20260505171644 22 346 14.5 20.9 0.00 0.00 0.00 46 1013.7
20260505171045 21 58 8.0 20.9 0.00 0.00 0.00 47 1013.6
20260505170528 21 19 11.3 20.9 0.00 0.00 0.00 47 1013.5
20260505170202 21 17 8.0 22.5 0.00 0.00 0.00 48 1013.6
20260505165521 21 43 16.1 25.7 0.00 0.00 0.00 48 1013.6
20260505165031 21 20 14.5 24.1 0.00 0.00 0.00 48 1013.6
20260505164642 21 352 16.1 24.1 0.00 0.00 0.00 49 1013.7
20260505164039 21 17 14.5 22.5 0.00 0.00 0.00 49 1013.7
20260505163523 20 12 16.1 22.5 0.00 0.00 0.00 50 1013.7
20260505163138 20 11 14.5 22.5 0.00 0.00 0.00 50 1013.7
20260505162522 20 10 16.1 25.7 0.00 0.00 0.00 50 1013.6
20260505162023 20 19 16.1 25.7 0.00 0.00 0.00 51 1013.7
20260505161643 20 5 14.5 20.9 0.00 0.00 0.00 51 1013.5
20260505161022 19 10 17.7 20.9 0.00 0.00 0.00 52 1013.4
20260505160539 18 5 16.1 20.9 0.00 0.00 0.00 53 1013.3
20260505160108 18 50 6.4 19.3 0.00 0.00 0.00 54 1013.3
20260505153148 17 46 11.3 20.9 0.00 0.00 0.00 56 1013.1
20260505152542 17 82 12.9 20.9 0.00 0.00 0.00 56 1013.0
20260505152028 17 66 12.9 19.3 0.00 0.00 0.00 56 1013.0
20260505151640 16 95 9.7 22.5 0.00 0.00 0.00 56 1013.1
20260505151028 16 64 14.5 22.5 0.00 0.00 0.00 56 1013.0
20260505150527 16 78 14.5 22.5 0.00 0.00 0.00 56 1012.8
20260505150144 16 67 12.9 24.1 0.00 0.00 0.00 57 1012.7
20260505140543 13 32 9.7 17.7 0.00 0.00 0.00 75 1011.9
20260505140201 12 72 8.0 16.1 0.00 0.00 0.00 76 1011.9
20260505130158 11 50 6.4 17.7 0.00 0.00 0.00 80 1011.2
20260505125021 11 35 9.7 16.1 0.00 0.00 0.00 81 1011.2
20260505124621 11 91 9.7 17.7 0.00 0.00 0.00 81 1011.1
20260505124034 11 45 9.7 19.3 0.00 0.00 0.00 81 1011.0
20260505123535 11 41 8.0 19.3 0.00 0.00 0.00 81 1011.0
20260505123131 11 28 6.4 16.1 0.00 0.00 0.00 81 1011.0
20260505122522 10 61 8.0 16.1 0.00 0.00 0.00 81 1010.9
20260505122022 10 54 6.4 17.7 0.00 0.00 0.00 81 1010.8
20260505121647 11 52 9.7 17.7 0.00 0.00 0.00 81 1010.8
20260505121026 11 75 8.0 19.3 0.00 0.00 0.00 80 1010.7
20260505120538 10 61 11.3 19.3 0.00 0.00 0.00 80 1010.7
20260505120210 11 60 9.7 16.1 0.00 0.00 0.00 79 1010.7
20260505115546 11 67 6.4 17.7 0.00 0.00 0.00 78 1010.7
20260505115025 11 67 9.7 17.7 0.00 0.00 0.00 77 1010.6
20260505114702 11 62 11.3 19.3 0.00 0.00 0.00 77 1010.6
20260505114024 11 76 11.3 19.3 0.00 0.00 0.00 76 1010.5
20260505113534 11 57 9.7 19.3 0.00 0.00 0.00 76 1010.5
20260505113158 11 44 11.3 17.7 0.00 0.00 0.00 76 1010.5
20260505112526 11 59 11.3 17.7 0.00 0.00 0.00 75 1010.4
20260505112025 11 47 9.7 16.1 0.00 0.00 0.00 75 1010.3
20260505111709 12 47 9.7 16.1 0.00 0.00 0.00 75 1010.3
20260505111024 12 54 9.7 16.1 0.00 0.00 0.00 74 1010.2
20260505110535 12 53 11.3 16.1 0.00 0.00 0.00 75 1010.2
20260505110208 12 38 8.0 14.5 0.00 0.00 0.00 75 1010.3
20260505102030 12 66 6.4 11.3 0.00 0.00 0.00 74 1009.8
20260505101649 12 59 4.8 9.7 0.00 0.00 0.00 75 1009.8
20260505101027 12 49 6.4 9.7 0.00 0.00 0.00 76 1009.8
20260505100527 12 57 1.6 6.4 0.00 0.00 0.00 76 1009.8
20260505100211 12 360 0.0 9.7 0.00 0.00 0.00 76 1009.6
20260505095546 12 36 3.2 9.7 0.00 0.00 0.00 75 1009.6
20260505095030 12 43 3.2 9.7 0.00 0.00 0.00 75 1009.5
20260505094637 13 57 4.8 9.7 0.00 0.00 0.00 74 1009.5
20260505094024 13 66 3.2 9.7 0.00 0.00 0.00 74 1009.4
20260505093543 13 67 4.8 9.7 0.00 0.00 0.00 74 1009.2
20260505093151 13 59 4.8 9.7 0.00 0.00 0.00 74 1009.2
20260505092523 13 50 4.8 9.7 0.00 0.00 0.00 74 1009.2
20260505092041 13 61 3.2 6.4 0.00 0.00 0.00 74 1009.2
20260505091610 13 57 0.0 8.0 0.00 0.00 0.00 73 1009.2
20260505091042 13 58 4.8 11.3 0.00 0.00 0.00 73 1009.2
20260505090542 13 67 6.4 12.9 0.00 0.00 0.00 73 1009.2
20260505090216 14 69 6.4 12.9 0.00 0.00 0.00 74 1009.2
20260505085521 14 73 4.8 11.3 0.00 0.00 0.00 74 1009.2
20260505085037 14 69 4.8 8.0 0.00 0.00 0.00 74 1009.2
20260505084800 14 55 3.2 6.4 0.00 0.00 0.00 74 1009.2
20260505084027 14 27 3.2 9.7 0.00 0.00 0.00 74 1009.1
20260505083529 15 44 4.8 9.7 0.00 0.00 0.00 74 1009.0
20260505083147 15 34 4.8 9.7 0.00 0.00 0.00 72 1009.0
20260505082542 15 45 4.8 8.0 0.00 0.00 0.00 73 1009.1
20260505082034 15 65 3.2 14.5 0.00 0.00 0.00 73 1009.0
20260505081700 15 74 8.0 14.5 0.00 0.00 0.00 74 1008.8
20260505081027 15 118 3.2 9.7 0.00 0.00 0.00 73 1009.1
20260505080541 15 86 4.8 12.9 0.00 0.00 0.00 73 1008.9
20260505080211 15 80 6.4 14.5 0.00 0.00 0.00 72 1008.8
20260505075543 15 65 8.0 14.5 0.00 0.00 0.00 71 1008.7
20260505075022 16 78 6.4 12.9 0.00 0.00 0.00 70 1008.7
20260505074709 16 81 4.8 11.3 0.00 0.00 0.00 69 1008.5
20260505074028 16 58 6.4 11.3 0.00 0.00 0.00 67 1008.6
20260505073535 16 34 4.8 14.5 0.00 0.00 0.00 67 1008.6
20260505073150 16 67 6.4 11.3 0.00 0.00 0.00 67 1008.6
20260505072533 16 41 6.4 14.5 0.00 0.00 0.00 67 1008.5
20260505072023 16 35 4.8 14.5 0.00 0.00 0.00 68 1008.5
20260505071620 16 36 8.0 16.1 0.00 0.00 0.00 68 1008.5
20260505071041 16 55 6.4 16.1 0.00 0.00 0.00 68 1008.4
20260505070520 16 58 8.0 14.5 0.00 0.00 0.00 67 1008.3
20260505070147 16 55 6.4 14.5 0.00 0.00 0.00 66 1008.2
20260505065528 16 62 8.0 14.5 0.00 0.00 0.00 66 1008.2
20260505065042 16 88 6.4 12.9 0.00 0.00 0.00 65 1008.0
20260505064658 16 68 8.0 14.5 0.00 0.00 0.00 65 1008.0
20260505064020 16 61 8.0 14.5 0.00 0.00 0.00 64 1007.9
20260505063517 17 65 6.4 11.3 0.00 0.00 0.00 64 1007.9
20260505063209 17 49 4.8 9.7 0.00 0.00 0.00 63 1007.9
20260505062528 17 62 4.8 9.7 0.00 0.00 0.00 62 1008.0
20260505062026 17 90 6.4 9.7 0.00 0.00 0.00 61 1007.9
20260505061628 17 71 3.2 8.0 0.00 0.00 0.00 60 1008.0
20260505061032 18 57 3.2 8.0 0.00 0.00 0.00 59 1008.0
20260505060538 18 43 3.2 6.4 0.00 0.00 0.00 57 1008.0
20260505060201 18 5 0.0 6.4 0.00 0.00 0.00 56 1007.9
20260505055534 18 49 3.2 6.4 0.00 0.00 0.00 56 1007.9
20260505055049 18 80 4.8 11.3 0.00 0.00 0.00 55 1007.8
20260505054657 18 46 4.8 11.3 0.00 0.00 0.00 55 1007.8
20260505054024 18 38 6.4 14.5 0.00 0.00 0.00 54 1007.8
20260505053520 18 56 8.0 14.5 0.00 0.00 0.00 54 1007.7
20260505053124 20 72 8.0 12.9 0.00 0.00 0.00 52 1007.8
20260505052529 20 22 4.8 8.0 0.00 0.00 0.00 50 1007.7
20260505052038 20 352 3.2 6.4 0.00 0.00 0.00 49 1007.8
20260505051706 20 333 3.2 6.4 0.00 0.00 0.00 48 1007.7
20260505051042 20 298 0.0 11.3 0.00 0.00 0.00 50 1007.8
20260505050539 19 298 4.8 11.3 0.00 0.00 0.00 51 1007.8
20260505050208 19 324 3.2 9.7 0.00 0.00 0.00 51 1007.7
20260505041658 21 62 4.8 19.3 0.00 0.00 0.00 45 1007.2
20260505041028 22 75 11.3 19.3 0.00 0.00 0.00 43 1007.2
20260505040526 22 14 6.4 14.5 0.00 0.00 0.00 38 1007.0
20260505040204 22 16 6.4 14.5 0.00 0.00 0.00 39 1007.1
20260505035543 21 36 4.8 9.7 0.00 0.00 0.00 39 1007.0
20260505035041 21 13 4.8 8.0 0.00 0.00 0.00 41 1006.8
20260505034643 21 5 0.0 0.0 0.00 0.00 0.00 42 1006.8
20260505034042 21 38 0.0 0.0 0.00 0.00 0.00 42 1006.8
20260505033524 21 51 0.0 0.0 0.00 0.00 0.00 42 1006.7
20260505033150 22 65 0.0 1.6 0.00 0.00 0.00 42 1006.7
20260505032541 22 65 0.0 1.6 0.00 0.00 0.00 41 1006.7
20260505032024 23 349 0.0 8.0 0.00 0.00 0.00 39 1006.7
20260505031650 25 338 1.6 8.0 0.00 0.00 0.00 35 1006.6
20260505031042 25 341 3.2 9.7 0.00 0.00 0.00 34 1006.6
20260505030522 24 337 4.8 9.7 0.00 0.00 0.00 34 1006.6
20260505030150 25 352 6.4 9.7 0.00 0.00 0.00 36 1006.6
20260505025530 25 360 3.2 6.4 0.00 0.00 0.00 38 1006.5
20260505025020 25 348 0.0 4.8 0.00 0.00 0.00 37 1006.3
20260505024625 26 347 3.2 6.4 0.00 0.00 0.00 33 1006.4
20260505024032 26 337 3.2 6.4 0.00 0.00 0.00 32 1006.5
20260505023522 26 346 3.2 6.4 0.00 0.00 0.00 32 1006.6
20260505023128 27 352 3.2 4.8 0.00 0.00 0.00 32 1006.6
20260505022520 27 14 1.6 4.8 0.00 0.00 0.00 31 1006.6
20260505022022 28 5 3.2 4.8 0.00 0.00 0.00 29 1006.6
20260505021659 28 18 1.6 6.4 0.00 0.00 0.00 26 1006.7
20260505021034 29 18 3.2 9.7 0.00 0.00 0.00 26 1006.7
20260505020534 30 13 4.8 14.5 0.00 0.00 0.00 24 1006.7
20260505020135 30 11 8.0 14.5 0.00 0.00 0.00 21 1006.8
20260505015521 30 24 9.7 14.5 0.00 0.00 0.00 21 1006.7
20260505015037 30 15 8.0 12.9 0.00 0.00 0.00 21 1006.8
20260505014650 30 11 8.0 12.9 0.00 0.00 0.00 22 1006.8
20260505014037 31 28 8.0 12.9 0.00 0.00 0.00 20 1006.9
20260505013527 31 10 3.2 14.5 0.00 0.00 0.00 20 1007.0
20260505013131 31 28 8.0 14.5 0.00 0.00 0.00 19 1007.1
20260505012526 31 17 8.0 19.3 0.00 0.00 0.00 19 1007.1
20260505012041 31 352 14.5 20.9 0.00 0.00 0.00 19 1007.1
20260505011610 31 9 16.1 25.7 0.00 0.00 0.00 19 1007.2
20260505011021 31 30 9.7 20.9 0.00 0.00 0.00 19 1007.2
20260505010525 31 12 12.9 19.3 0.00 0.00 0.00 19 1007.3
20260505010151 31 26 6.4 16.1 0.00 0.00 0.00 18 1007.2
20260505005520 31 360 11.3 19.3 0.00 0.00 0.00 18 1007.3
20260505005031 31 360 9.7 22.5 0.00 0.00 0.00 18 1007.4
20260505004643 31 348 14.5 22.5 0.00 0.00 0.00 18 1007.3
20260505004034 31 20 8.0 17.7 0.00 0.00 0.00 19 1007.3
20260505003538 31 336 9.7 19.3 0.00 0.00 0.00 18 1007.4
20260505003142 31 316 14.5 19.3 0.00 0.00 0.00 18 1007.4
20260505002526 31 344 8.0 19.3 0.00 0.00 0.00 17 1007.3
20260505002030 31 23 9.7 19.3 0.00 0.00 0.00 18 1007.5
20260505001638 31 352 9.7 22.5 0.00 0.00 0.00 20 1007.4
20260505001026 31 326 17.7 22.5 0.00 0.00 0.00 22 1007.3
20260505000527 31 325 16.1 24.1 0.00 0.00 0.00 19 1007.3
20260505000153 31 324 19.3 25.7 0.00 0.00 0.00 19 1007.4
20260504235522 31 337 16.1 25.7 0.00 0.00 0.00 18 1007.5
20260504235019 31 340 17.7 25.7 0.00 0.00 0.00 18 1007.4
20260504234638 31 320 16.1 29.0 0.00 0.00 0.00 17 1007.4
20260504234019 32 344 19.3 29.0 0.00 0.00 0.00 18 1007.6
20260504233515 32 340 17.7 25.7 0.00 0.00 0.00 17 1007.4
20260504233111 32 322 12.9 22.5 0.00 0.00 0.00 18 1007.4
20260504232523 32 328 12.9 24.1 0.00 0.00 0.00 16 1007.6
20260504232030 32 321 14.5 24.1 0.00 0.00 0.00 18 1007.6
20260504231643 31 291 11.3 20.9 0.00 0.00 0.00 17 1007.6
20260504231027 31 20 11.3 22.5 0.00 0.00 0.00 17 1007.7
20260504230521 31 347 16.1 25.7 0.00 0.00 0.00 16 1007.6
20260504230152 31 344 20.9 25.7 0.00 0.00 0.00 17 1007.7
20260504225542 32 319 19.3 25.7 0.00 0.00 0.00 17 1007.8
20260504225033 32 344 16.1 27.4 0.00 0.00 0.00 17 1007.7
20260504224636 32 352 19.3 33.8 0.00 0.00 0.00 17 1007.8
20260504224031 32 349 22.5 33.8 0.00 0.00 0.00 17 1007.8
20260504223522 32 23 16.1 25.7 0.00 0.00 0.00 17 1007.8
20260504223140 32 360 14.5 27.4 0.00 0.00 0.00 18 1007.8
20260504222528 32 352 11.3 20.9 0.00 0.00 0.00 17 1007.8
20260504222019 32 329 4.8 22.5 0.00 0.00 0.00 17 1007.9
20260504221650 32 352 8.0 22.5 0.00 0.00 0.00 18 1008.0
20260504221043 32 17 6.4 22.5 0.00 0.00 0.00 19 1008.0
20260504220522 32 344 14.5 22.5 0.00 0.00 0.00 18 1008.1
20260504220211 32 343 4.8 17.7 0.00 0.00 0.00 18 1008.1
20260504215534 32 279 8.0 17.7 0.00 0.00 0.00 19 1008.2
20260504215027 32 22 6.4 14.5 0.00 0.00 0.00 20 1008.1
20260504214658 32 18 0.0 14.5 0.00 0.00 0.00 19 1008.2
20260504214035 32 33 0.0 16.1 0.00 0.00 0.00 18 1008.2
20260504213544 32 292 8.0 17.7 0.00 0.00 0.00 18 1008.3
20260504213157 32 333 4.8 19.3 0.00 0.00 0.00 19 1008.4
20260504212531 32 330 8.0 19.3 0.00 0.00 0.00 19 1008.4
20260504212040 31 340 1.6 19.3 0.00 0.00 0.00 19 1008.4
20260504211647 31 343 1.6 16.1 0.00 0.00 0.00 20 1008.3
20260504211019 31 51 3.2 16.1 0.00 0.00 0.00 20 1008.5
20260504210530 31 343 0.0 9.7 0.00 0.00 0.00 20 1008.6
20260504210158 31 309 1.6 14.5 0.00 0.00 0.00 21 1008.7
20260504205543 31 317 4.8 14.5 0.00 0.00 0.00 21 1008.8
20260504205024 30 279 0.0 3.2 0.00 0.00 0.00 26 1009.0
20260504204657 30 105 0.0 6.4 0.00 0.00 0.00 28 1009.0
20260504204035 30 296 0.0 9.7 0.00 0.00 0.00 25 1009.0
20260504203520 30 49 3.2 12.9 0.00 0.00 0.00 28 1009.1
20260504203201 30 120 4.8 14.5 0.00 0.00 0.00 26 1009.2
20260504202531 30 90 6.4 19.3 0.00 0.00 0.00 31 1009.2
20260504202042 30 106 4.8 19.3 0.00 0.00 0.00 27 1009.3
20260504201612 30 90 6.4 16.1 0.00 0.00 0.00 27 1009.3
20260504201026 30 94 1.6 11.3 0.00 0.00 0.00 25 1009.3
20260504200528 30 62 4.8 16.1 0.00 0.00 0.00 26 1009.4